Вернуться в каталог

STARLINK-4068

АктивенСвязьVLEO
NORAD 52681·PAYLOAD·🇺🇸 United States

Запущен May 18, 2022 с Cape Canaveral Space Force Station

Loading…

Ближайшие Пролёты (ближайшие 24 часа)

TLE

СвежийSource: CelesTrak SupGP

Эпоха: Sep 15, 2026, 02:48 UTC

1 52681C 22053AB  26258.11715278  .00029482  00000+0  94815-3 0  2581
2 52681  53.1600   7.8784 0001213  79.1426  58.6620 15.31683931    17

Отслеживайте STARLINK-4068 в реальном времени с AllMySat

Download on the App Store